Total_Precipitation_Accumulation
0.04 0.07 0.10 0.14 0.14 0.10 0.10 0.16 0.15 0.10 0.07 0.04 0.02 0.02 0.03 0.05 0.03 0.02 0.01 0.00 0.00 0.00
0.05 0.05 0.10 0.13 0.09 0.04 0.03 0.02 0.02 0.01 0.01 0.00 0.02 0.06 0.09 0.08 0.03 0.01 0.00 0.00 0.00 0.00
0.06 0.11 0.14 0.12 0.08 0.04 0.02 0.01 0.00 0.00 0.02 0.08 0.14 0.15 0.10 0.04 0.01 0.00 0.00 0.00 0.00 0.00
0.09 0.19 0.16 0.12 0.08 0.05 0.03 0.02 0.05 0.10 0.12 0.09 0.05 0.02 0.00 0.00 0.00 0.00 0.00 0.00 0.01 0.00
0.07 0.10 0.13 0.12 0.08 0.07 0.05 0.04 0.03 0.01 0.01 0.00 0.00 0.00 0.00 0.01 0.00 0.01 0.05 0.04 0.01 0.00
0.03 0.04 0.05 0.06 0.06 0.05 0.03 0.02 0.01 0.01 0.02 0.02 0.01 0.01 0.01 0.01 0.05 0.08 0.04 0.01 0.00 0.00
0.06 0.03 0.04 0.03 0.01 0.00 0.00 0.00 0.00 0.00 0.01 0.01 0.00 0.00 0.03 0.07 0.07 0.06 0.03 0.00 0.00 0.00
0.01 0.00 0.00 0.00 0.00 0.00 0.00 0.00 0.00 0.00 0.00 0.00 0.01 0.03 0.06 0.12 0.11 0.03 0.00 0.00 0.00 0.00
0.00 0.00 0.00 0.00 0.00 0.00 0.00 0.00 0.00 0.00 0.01 0.01 0.03 0.09 0.12 0.05 0.01 0.00 0.00 0.00 0.00 0.00
0.00 0.00 0.00 0.00 0.00 0.00 0.00 0.00 0.00 0.00 0.01 0.04 0.07 0.05 0.02 0.01 0.00 0.01 0.00 0.00 0.00 0.00
0.00 0.00 0.00 0.00 0.00 0.00 0.00 0.00 0.01 0.01 0.03 0.03 0.01 0.01 0.03 0.03 0.01 0.01 0.00 0.00 0.00 0.00
0.00 0.00 0.00 0.00 0.00 0.00 0.00 0.00 0.00 0.00 0.00 0.00 0.00 0.03 0.03 0.02 0.00 0.00 0.00 0.00 0.00 0.00
0.00 0.00 0.00 0.00 0.00 0.00 0.00 0.00 0.00 0.00 0.00 0.03 0.01 0.01 0.00 0.00 0.00 0.00 0.00 0.00 0.00 0.00
0.00 0.00 0.00 0.00 0.00 0.00 0.00 0.00 0.00 0.00 0.00 0.00 0.00 0.00 0.00 0.00 0.00 0.00 0.00 0.00 0.00 0.00